Tracking 19489 objects as of 22-Jan-2019
HD Live streaming from Space Station
objects crossing your sky now

SKYNET 4E

Track SKYNET 4E now!
SKYNET 4E is classified as:


NORAD ID: 25639
Int'l Code: 1999-009B
Perigee: 35,779.2 km
Apogee: 35,807.4 km
Inclination: 10.6 °
Period: 1,436.1 minutes
Semi major axis: 42164 km
RCS: 5.2477 m2 (large)
Launch date: February 26, 1999
Source: United Kingdom (UK)
Launch site: FRENCH GUIANA (FRGUI)

Used primarily by UK's armed forces, government departments, agencies and other organizations that require secure communications.
aabbcc
Your satellite tracking list
Your tracking list is empty




NASA's NSSDC Master Catalog

Two Line Element Set (TLE):
1 25639U 99009B   19021.78755021 -.00000038  00000-0  00000+0 0  9991
2 25639  10.5706  24.3519 0003336 257.6452 121.1618  1.00273426 72910
Source of the keplerian elements: AFSPC